User: anonymous   Login
Location: ???????
(55.4362°N, 38.1183°E)
Time: 03:09:27
(UTC+00:00)
Language:

DUCHIFAT 1 - Orbit

View from above orbital plane
View from above orbital plane
View from above satellite
View from above satellite

Ground track
Ground track

The orbit data is extracted from the following two-line orbital elements,

1 40021U 14033M   21332.56722623  .00001046  00000-0  10986-3 0  9990
2 40021  97.9895 274.6484 0012570 350.3460   9.7515 14.91659307404748
Epoch (UTC): 28 November 2021 13:36:48
Eccentricity: 0.0012570
inclination: 97.9895°
perigee height: 584 km
apogee height: 601 km
right ascension of ascending node: 274.6484°
argument of perigee: 350.3460°
revolutions per day: 14.91659307
mean anomaly at epoch: 9.7515°
orbit number at epoch: 40474

The dashed part of the orbit path shows where the satellite is in the earth's shadow,  

DLR